Hereford, TX

8:30 PM CDT on July 23, 2017 (GMT -0500)
Hereford Municipal

Weather History for KHRX - April, 2012

Change the Weather History Date:

Saturday, April 7, 2012

  Actual Average (KCVN) Record (KCVN)
Temperature  
Mean Temperature 52 °F -  
Max Temperature 64 °F 72 °F 90 °F (1930)
Min Temperature 41 °F 39 °F 17 °F (1938)
Degree Days  
Heating Degree Days 12    
Growing Degree Days 2 (Base 50)    
Moisture  
Dew Point 33 °F    
Average Humidity 47    
Maximum Humidity 88    
Minimum Humidity 20    
Precipitation  
Precipitation 0.00 in - - ()
Sea Level Pressure  
Sea Level Pressure 30.16 in    
Wind  
Wind Speed 16 mph (NE)    
Max Wind Speed 37 mph    
Max Gust Speed 47 mph    
Visibility 10 miles    
Events      
Averages and records for this station are not official NWS values.
T = Trace of Precipitation, MM = Missing Value Source: NWS Daily Summary

Daily Weather History Graph

Daily Weather History Graph

Search for Another Location

Airport or City:

Trip Planner

Search our weather history database for the weather conditions in past years. The results will help you decide how hot, cold, wet, or windy it might be!

Date:

Astronomy

Apr. 07, 2012 Rise Set
Actual Time 7:27 AM CDT 8:15 PM CDT
Civil Twilight 7:01 AM CDT 8:41 PM CDT
Nautical Twilight 6:31 AM CDT 9:11 PM CDT
Astronomical Twilight 6:00 AM CDT 9:43 PM CDT
Moon 9:46 PM CDT (4/7) 7:44 AM CDT (4/7)
Length of Visible Light 13h 39m
Length of Day
12h 48m
Full, 99% of the Moon is Illuminated
Apr 7
Full
Apr 13
Last Quarter
Apr 21
New
Apr 29
First Quarter
May 5
Full

Hourly Weather History & Observations

Time (CDT) Temp. Windchill Dew Point Humidity Pressure Visibility Wind Dir Wind Speed Gust Speed Precip Events Conditions
12:35 AM 59.0 °F - 50.0 °F 72% 29.96 in 10.0 mi SE 10.4 mph - N/A   Clear
12:55 AM 60.8 °F - 51.8 °F 72% 29.95 in 10.0 mi SE 12.7 mph - N/A   Clear
1:15 AM 60.8 °F - 51.8 °F 72% 29.95 in 10.0 mi ESE 15.0 mph 21.9 mph N/A   Clear
1:35 AM 59.0 °F - 51.8 °F 77% 29.96 in 10.0 mi ESE 13.8 mph - N/A   Clear
1:55 AM 57.2 °F - 51.8 °F 82% 29.96 in 10.0 mi ESE 10.4 mph - N/A   Clear
2:15 AM 57.2 °F - 51.8 °F 82% 29.95 in 10.0 mi ESE 15.0 mph 19.6 mph N/A   Clear
2:55 AM 55.4 °F - 51.8 °F 88% 29.95 in 10.0 mi ESE 10.4 mph - N/A   Clear
3:15 AM 55.4 °F - 51.8 °F 88% 29.95 in 10.0 mi ESE 10.4 mph - N/A   Clear
3:35 AM 55.4 °F - 48.2 °F 77% 29.95 in 10.0 mi SE 8.1 mph - N/A   Clear
3:55 AM 53.6 °F - 42.8 °F 67% 29.96 in 10.0 mi SE 6.9 mph - N/A   Clear
4:15 AM 51.8 °F - 37.4 °F 58% 29.96 in 10.0 mi South 8.1 mph - N/A   Clear
4:35 AM 50.0 °F - 35.6 °F 58% 29.98 in 10.0 mi SW 4.6 mph - N/A   Clear
4:55 AM 46.4 °F 42.9 °F 35.6 °F 66% 29.99 in 10.0 mi WSW 6.9 mph - N/A   Clear
5:15 AM 46.4 °F 45.2 °F 32.0 °F 57% 29.99 in 10.0 mi WSW 3.5 mph - N/A   Clear
5:35 AM 44.6 °F 43.1 °F 32.0 °F 61% 30.00 in 10.0 mi West 3.5 mph - N/A   Clear
5:55 AM 42.8 °F 38.6 °F 32.0 °F 66% 30.01 in 10.0 mi West 6.9 mph - N/A   Clear
6:15 AM 41.0 °F 34.3 °F 32.0 °F 70% 30.02 in 10.0 mi West 11.5 mph - N/A   Clear
6:35 AM 41.0 °F 37.1 °F 32.0 °F 70% 30.03 in 10.0 mi WSW 5.8 mph - N/A   Clear
7:15 AM 41.0 °F 36.4 °F 35.6 °F 81% 30.05 in 10.0 mi West 6.9 mph - N/A   Clear
7:35 AM 42.8 °F 38.0 °F 37.4 °F 81% 30.07 in 10.0 mi West 8.1 mph - N/A   Clear
7:55 AM 42.8 °F 38.0 °F 37.4 °F 81% 30.08 in 10.0 mi WNW 8.1 mph - N/A   Clear
8:15 AM 46.4 °F 39.2 °F 42.8 °F 87% 30.10 in 10.0 mi NNW 18.4 mph 21.9 mph N/A   Clear
8:35 AM 51.8 °F - 46.4 °F 82% 30.13 in 10.0 mi North 21.9 mph 31.1 mph N/A   Clear
8:55 AM 50.0 °F - 44.6 °F 82% 30.15 in 10.0 mi North 27.6 mph 32.2 mph N/A   Clear
9:15 AM 50.0 °F - 39.2 °F 66% 30.17 in 10.0 mi North 27.6 mph 38.0 mph N/A   Clear
9:35 AM 51.8 °F - 37.4 °F 58% 30.19 in 7.0 mi North 32.2 mph 41.4 mph N/A   Mostly Cloudy
9:55 AM 51.8 °F - 32.0 °F 47% 30.20 in 7.0 mi NNE 31.1 mph 46.0 mph N/A   Overcast
10:15 AM 53.6 °F - 28.4 °F 38% 30.21 in 7.0 mi NNE 36.8 mph 43.7 mph N/A   Overcast
10:35 AM 53.6 °F - 26.6 °F 35% 30.23 in 5.0 mi NNE 31.1 mph 47.2 mph N/A   Haze
10:55 AM 55.4 °F - 24.8 °F 31% 30.24 in 7.0 mi NNE 34.5 mph 43.7 mph N/A   Clear
11:35 AM 59.0 °F - 21.2 °F 23% 30.27 in 7.0 mi NNE 33.4 mph 41.4 mph N/A   Clear
11:55 AM 59.0 °F - 21.2 °F 23% 30.27 in 10.0 mi NE 31.1 mph 40.3 mph N/A   Clear
12:15 PM 60.8 °F - 21.2 °F 22% 30.27 in 10.0 mi NNE 31.1 mph 39.1 mph N/A   Clear
12:35 PM 62.6 °F - 21.2 °F 20% 30.28 in 10.0 mi NE 29.9 mph 38.0 mph N/A   Clear
12:55 PM 62.6 °F - 23.0 °F 22% 30.28 in 10.0 mi NE 24.2 mph 33.4 mph N/A   Clear
1:15 PM 64.4 °F - 23.0 °F 21% 30.28 in 10.0 mi NE 26.5 mph 31.1 mph N/A   Clear
1:35 PM 64.4 °F - 23.0 °F 21% 30.28 in 10.0 mi NE 25.3 mph 32.2 mph N/A   Clear
1:55 PM 64.4 °F - 23.0 °F 21% 30.28 in 10.0 mi NE 24.2 mph 34.5 mph N/A   Clear
2:15 PM 64.4 °F - 23.0 °F 21% 30.28 in 10.0 mi NE 27.6 mph 34.5 mph N/A   Clear
2:35 PM 62.6 °F - 23.0 °F 22% 30.28 in 10.0 mi NE 25.3 mph 33.4 mph N/A   Clear
3:15 PM 64.4 °F - 24.8 °F 22% 30.28 in 10.0 mi ENE 21.9 mph 29.9 mph N/A   Clear
3:35 PM 64.4 °F - 24.8 °F 22% 30.28 in 10.0 mi NE 21.9 mph 27.6 mph N/A   Clear
3:55 PM 64.4 °F - 24.8 °F 22% 30.27 in 10.0 mi ENE 20.7 mph 29.9 mph N/A   Clear
4:15 PM 64.4 °F - 24.8 °F 22% 30.27 in 10.0 mi NE 23.0 mph 26.5 mph N/A   Clear
4:35 PM 64.4 °F - 26.6 °F 24% 30.27 in 10.0 mi ENE 19.6 mph 28.8 mph N/A   Clear
4:55 PM 64.4 °F - 26.6 °F 24% 30.27 in 10.0 mi ENE 19.6 mph 28.8 mph N/A   Clear
5:15 PM 64.4 °F - 26.6 °F 24% 30.28 in 10.0 mi ENE 19.6 mph 28.8 mph N/A   Clear
5:35 PM 64.4 °F - 26.6 °F 24% 30.28 in 10.0 mi ENE 18.4 mph 26.5 mph N/A   Clear
5:55 PM 64.4 °F - 26.6 °F 24% 30.29 in 10.0 mi ENE 20.7 mph 24.2 mph N/A   Clear
6:15 PM 62.6 °F - 26.6 °F 26% 30.29 in 10.0 mi NE 15.0 mph 24.2 mph N/A   Clear
6:35 PM 62.6 °F - 26.6 °F 26% 30.29 in 10.0 mi ENE 18.4 mph 21.9 mph N/A   Clear
6:55 PM 62.6 °F - 26.6 °F 26% 30.30 in 10.0 mi ENE 19.6 mph - N/A   Clear
7:15 PM 60.8 °F - 26.6 °F 27% 30.30 in 10.0 mi ENE 17.3 mph 24.2 mph N/A   Clear
7:35 PM 60.8 °F - 26.6 °F 27% 30.31 in 10.0 mi ENE 16.1 mph - N/A   Clear
8:15 PM 59.0 °F - 26.6 °F 29% 30.32 in 10.0 mi ENE 13.8 mph - N/A   Clear
8:55 PM 55.4 °F - 26.6 °F 33% 30.34 in 10.0 mi ENE 15.0 mph - N/A   Clear
9:15 PM 53.6 °F - 26.6 °F 35% 30.35 in 10.0 mi ENE 10.4 mph - N/A   Clear
9:35 PM 51.8 °F - 28.4 °F 41% 30.35 in 10.0 mi ENE 9.2 mph - N/A   Clear
9:55 PM 50.0 °F - 28.4 °F 43% 30.37 in 10.0 mi ENE 5.8 mph - N/A   Clear
10:15 PM 46.4 °F 42.9 °F 28.4 °F 50% 30.37 in 10.0 mi NE 6.9 mph - N/A   Clear
10:35 PM 46.4 °F 43.5 °F 28.4 °F 50% 30.37 in 10.0 mi ENE 5.8 mph - N/A   Clear
10:55 PM 42.8 °F 38.0 °F 28.4 °F 57% 30.38 in 10.0 mi East 8.1 mph - N/A   Clear
11:15 PM 42.8 °F 39.3 °F 28.4 °F 57% 30.38 in 10.0 mi NE 5.8 mph - N/A   Clear
11:35 PM 42.8 °F 39.3 °F 28.4 °F 57% 30.39 in 10.0 mi NE 5.8 mph - N/A   Clear
11:55 PM 41.0 °F 37.1 °F 28.4 °F 61% 30.40 in 10.0 mi ENE 5.8 mph - N/A   Clear